Showing default

SECOR 7 (EGRS 7), 2411

Orbit data source: Space-Track

SECOR 7 (EGRS 7), 2411 is an American payload satellite in LEO that was launched on Fri, 19 Aug 1966 UTC via an ATLAS SLV-3 AGENA D launch vehicle from the Air Force Western Test Range (AFWTR). Payload-class satellites include a variety of spacecraft equipped with specific instruments for various scientific and technological missions. These include communications satellites like Starlink; space stations such as the ISS; scientific satellites like the Hubble; Earth observation satellites from companies like Planet Labs, Umbra, and HawkEye 360; GPS; miniature CubeSats for education and research; and military/defense satellites.

Loading next visibility...
Identifier
2411, 1966-077B
Orbit
LEO
Last TLE update
1 day ago
Origin
Manufacturer
ITT
Mission
Defense Geodetic
Bus & Motor
SECOR, Unknown motor
Mass
18 kg wet, 18 kg dry
Launch date (UTC)
1966-08-19 (59 years ago)
Launch vehicle
ATLAS SLV-3 AGENA D
Launch site
Air Force Western Test Range (AFWTR)
Object type
Payload
Rocket body
Debris
Shape & HBR
Box, 0.36 m
Radar Cross Section
0.095 m², Medium (>0.1 m² and < 1m²)

Expand to show TLE details & history

TLE from 1 day ago
0 SECOR 7 (EGRS 7)
1 02411U 66077B   25128.36858923  .00000002  00000-0  38923-3 0  9996
2 02411  90.3315 272.7047 0013663 106.8196 253.4155  8.59615729842595
Epoch: 2025-05-08T08:50Z
Definitive object data (Epoch: 2025-05-08T08:50:46.109Z)
Latitude
-0.00003°
Longitude
-86.4275°
Altitude
3,694.194 km
Speed
6.29 km/s
True Right ascension
18h 10m 49s
True Declination
0° 00' 00"
Sunlit
Object was in daylight at TLE epoch
Visualization TLE readout
Latitude
33.6522°
Longitude
93.8078°
Altitude
3,681.588 km
Speed
6.301 km/s
Apparent Right ascension
08h 22m 31s
Apparent Declination
9° 26' 15"
Sunlit
Object is in daylight
Visualization observer readout
Local Sidereal Time
00:52:33
Azimuth
68.017° E
Elevation
-10.617°
Doppler factor
1
Orbital elements
Apogee altitude
3,699.634 km
Perigee altitude
3,672.133 km
Semi-major axis
10,064.02 km
Eccentricity
0.0013663
Inclination
90.3315°
RAAN
272.7047°
Arg. of periapsis
106.8196°
True anomaly
253.26552°
Mean anomaly
253.4155°
Eccentric anomaly
253.3405°
Mean motion
2.14974 °/min
BSTAR
0.00038923
Orbital period
167.46 mins
Loading maneuver chart data...
Loading SW <> Apogee altitude chart data...
Loading historical data...
Loading historical data...
Loading historical data...
Loading historical data...
Loading historical data...
Loading historical data...
Loading historical data...

SECOR 7 (EGRS 7) Visibility forecast

Observer location: undefined°, undefined°

Span
Click to sort rows by Start time (UTC) header in descending order
Start Az.
Max El. time (UTC)
Max El. Az.
Max El.
End time (UTC)
End Az.
29 mins2025-05-09 19:10:02.248Z15.136° NNE2025-05-09 19:25:02.248Z70.091° E23.826°2025-05-09 19:39:02.248Z120.646° SE
36 mins2025-05-09 21:57:02.248Z0.766° NNE2025-05-09 22:14:02.248Z281.119° WNW44.778°2025-05-09 22:33:02.248Z192.841° SSW
22 mins2025-05-10 00:46:02.248Z343.318° N2025-05-10 00:56:02.248Z307.53° NW20.245°2025-05-10 01:08:02.248Z265.791° W
33 mins2025-05-10 08:23:02.248Z140.341° SSE2025-05-10 08:39:02.248Z75.164° E38.456°2025-05-10 08:56:02.248Z4.234° NNE
35 mins2025-05-10 11:09:02.248Z209.154° SW2025-05-10 11:26:02.248Z280.513° WNW36.441°2025-05-10 11:44:02.248Z352.498° N
|